Weather History for Ubon Ratchathani, Thailand

Change the Weather History Date:

Thursday, October 27, 2011

  Actual Average Record
Temperature  
Mean Temperature 82 °F -  
Max Temperature 92 °F 87 °F - ()
Min Temperature 72 °F 68 °F - ()
Cooling Degree Days 17    
Growing Degree Days 32 (Base 50)    
Moisture  
Dew Point 71 °F    
Average Humidity 69    
Maximum Humidity 94    
Minimum Humidity 39    
Precipitation  
Precipitation 0.00 in 0.04 in - ()
Sea Level Pressure  
Sea Level Pressure 29.84 in    
Wind  
Wind Speed 4 mph ()    
Max Wind Speed 8 mph    
Max Gust Speed -    
Visibility 6.0 miles    
Events      
T = Trace of Precipitation, MM = Missing Value Source: Averaged Metar Reports

Daily Weather History Graph

Daily Weather History Graph

Search for Another Location

Airport:

Trip Planner

Search our weather history database for the weather conditions in past years. The results will help you decide how hot, cold, wet, or windy it might be!

Date:

Astronomy

Oct. 27, 2011 Rise Set
Actual Time 5:54 AM ICT 5:33 PM ICT
Civil Twilight 5:32 AM ICT 5:55 PM ICT
Nautical Twilight 5:07 AM ICT 6:21 PM ICT
Astronomical Twilight 4:42 AM ICT 6:46 PM ICT
Moon 6:05 AM ICT 5:53 PM ICT
Length of Visible Light 12h 22m
Length of Day
11h 38m
New Moon, 0% of the Moon is Illuminated
Oct 27
New Moon
Nov 2
First Quarter
Nov 11
Full
Nov 18
Last Quarter
Nov 25
New

Hourly Weather History & Observations

Time (ICT) Temp. Heat Index Dew Point Humidity Pressure Visibility Wind Dir Wind Speed Gust Speed Precip Events Conditions
12:00 AM 77.0 °F - 71.6 °F 83% 29.86 in - NNE 3.5 mph - N/A   Clear
1:00 AM 76 °F - 72 °F 84% 29.83 in 6 mi NNE 3.5 mph - -   Scattered Clouds
1:00 AM 75.2 °F - 71.6 °F 89% 29.83 in - NNE 3.5 mph - N/A   Clear
4:00 AM 73.4 °F - 71.6 °F 94% 29.80 in - NNE 4.6 mph - N/A   Clear
5:00 AM 73.4 °F - 71.6 °F 94% 29.83 in 5.6 mi NNE 3.5 mph - N/A   Unknown
6:00 AM 71.6 °F - 69.8 °F 94% 29.86 in 5.0 mi NNE 3.5 mph - N/A   Unknown
7:00 AM 75 °F - 71 °F 82% 29.88 in 6 mi NNE 4.6 mph - -   Mist
7:00 AM 75.2 °F - 71.6 °F 89% 29.86 in 5.6 mi NNE 4.6 mph - N/A   Unknown
8:00 AM 78.8 °F - 69.8 °F 74% 29.89 in - North 4.6 mph - N/A   Clear
9:00 AM 82.4 °F 86.3 °F 69.8 °F 66% 29.89 in - NNE 5.8 mph - N/A   Clear
10:00 AM 84.2 °F 88.4 °F 69.8 °F 62% 29.89 in - North 4.6 mph - N/A   Clear
11:00 AM 86.0 °F 90.4 °F 69.8 °F 58% 29.89 in - NE 5.8 mph - N/A   Clear
12:00 PM 87.8 °F 92.6 °F 69.8 °F 55% 29.86 in 6.2 mi NNE 6.9 mph - N/A   Partly Cloudy
1:00 PM 91 °F - 69 °F 39% 29.83 in 6 mi North 6.9 mph - -   Scattered Clouds
1:00 PM 91.4 °F 98.4 °F 71.6 °F 52% 29.83 in 6.2 mi North 6.9 mph - N/A   Partly Cloudy
2:00 PM 91.4 °F 98.4 °F 71.6 °F 52% 29.80 in 6.2 mi North 6.9 mph - N/A   Partly Cloudy
3:00 PM 91.4 °F 98.4 °F 71.6 °F 52% 29.77 in 6.2 mi NNE 5.8 mph - N/A   Partly Cloudy
4:00 PM 91.4 °F 98.4 °F 71.6 °F 52% 29.77 in 6.2 mi North 6.9 mph - N/A   Partly Cloudy
5:00 PM 89.6 °F 96.2 °F 71.6 °F 55% 29.77 in 6.2 mi North 8.1 mph - N/A   Partly Cloudy
6:00 PM 86.0 °F 91.8 °F 71.6 °F 62% 29.77 in 6.2 mi North 5.8 mph - N/A   Scattered Clouds
7:00 PM 85 °F - 69 °F 49% 29.79 in 6 mi NNE 8.1 mph - -   Scattered Clouds
7:00 PM 84.2 °F 87.3 °F 68.0 °F 58% 29.80 in 6.2 mi NNE 8.1 mph - N/A   Mostly Cloudy
8:00 PM 82.4 °F 86.3 °F 69.8 °F 66% 29.83 in 6.2 mi NE 5.8 mph - N/A   Mostly Cloudy
9:00 PM 80.6 °F 84.6 °F 71.6 °F 74% 29.86 in 6.2 mi SSE 3.5 mph - N/A   Mostly Cloudy
10:00 PM 78.8 °F - 71.6 °F 78% 29.89 in 6.2 mi ESE 2.3 mph - N/A   Mostly Cloudy
11:00 PM 78.8 °F - 71.6 °F 78% 29.89 in 6.2 mi SSE 2.3 mph - N/A   Mostly Cloudy